English version Home page |
Updated on October 8, 2017 |
|
軌道要素Epoch 2017 Feb. 16.0 TT = JDT 2457800.5 T 2017 Feb. 26.78498 TT MPCW q 1.7480708 (2000.0) P Q n 0.04200701 Peri. 35.85659 +0.64109558 +0.03022751 a 8.1957410 Node 59.87469 +0.31183485 -0.92328156 e 0.7867099 Incl. 117.54825 +0.70125280 +0.38293271 P 23.46 From 173 observations 2016 Nov. 30-2017 Aug. 15, mean residual 0".4.
|
光度変化m1 = 14.0 + 5 logΔ + 10.0 log r
|
軌道要素はM.P.E.C. 2017-T14に掲載されたものです。
|